메뉴 건너뛰기


번호 제목 글쓴이 날짜 조회 수 추천 수
공지 오메가 #SpeedyTuesday 타임포럼 회원 대상 이벤트 [23] Eno 2020.05.11 804 6
공지 [2006년~2014년] 오메가 포럼 클래식 리스트 [54] Eno 2014.01.06 11541 32
Hot [득템] 다시 만난 007 에디션...(씨마스터 007) [29] Panera2 2020.05.22 608 6
Hot 오메가 #SpeedyTuesday 이벤트 2주차 당첨자 발표 [28] Eno 2020.05.22 376 3
Hot 오메가 007에디션 [15] 목키 2020.05.21 557 10
Hot 실버 스누피 어워드 50주년 기념 (OMEGA Instagram) [23] spooky 2020.04.17 1526 1
19925 오메가 입문 하려고 고민중입니다 [13] new cromking 11:09:12 98 0
19924 바다 생각하면 떠오르는 시계와 여수 밤바다 ♬ [2] newfile 원똘 02:15:39 91 0
19923 좋은시계로 오메가 입당합니다fois [11] newfile 더블엠 2020.05.29 199 1
19922 오메가 #SpeedyTuesday 이벤트 3주차 당첨자 발표 [14] updatefile Eno 2020.05.29 211 4
19921 금요일이고 이벤트 참여는 아니지만 문워치 ㅋㅋㅋ [5] updatefile 믓시엘 2020.05.29 131 1
19920 유감스러운 일입니다. [11] updatefile 불가리부터알오까지 2020.05.28 529 0
19919 물만난 뀨 PO입니다 [10] updatefile 클래식컬 2020.05.27 219 0
19918 김일성 사인이 새겨진 인민 오메가 콘스텔레이션 [7] file 꿈푸른 2020.05.27 412 0
19917 늦은 스튜데이 릴레이 [5] file 플레이어13 2020.05.27 176 3
19916 비가 올거 같은 날씨에 ^^~ [4] file 코코몽1004 2020.05.27 139 1
19915 물 만난 씨마(007) [12] file Panera2 2020.05.27 248 3
19914 #speedy tuesday 3/4 [17] updatefile 김벤츠 2020.05.26 143 1
19913 #SpeedyTuesday! MoonWatch. [13] file 누누누 2020.05.26 104 1
19912 #SpeedyTuesday 이벤트 3주차 참여- Apollo 13 [7] file Sky Blue 2020.05.26 113 1
19911 #SpeedyTuesday 살찌는화요일 [12] file 려석 2020.05.26 103 1
19910 #SpeedyTuesday 5주년과 50주년을 기념하는 5월 ❤️ [12] file 원똘 2020.05.26 186 2
19909 #SpeedyTuesday 우주를 향해, 문워치 [12] file Fio 2020.05.26 117 2
19908 @omega #SpeedyTuesday 3주차 문워치 전쟁 참여 [12] file m.kris 2020.05.26 135 2
19907 #SpeedyTuesday.. 45주년 그리고 45 RPM [14] file LifeGoesOn 2020.05.26 240 7
19906 ONEGA #SPEEDYTUESDAY 이벤트 참여합니다! [18] file 옹스 2020.05.26 169 3
19905 @OMEGA #SpeedyTuesday 참여합니다! [20] file 이안크라드 2020.05.26 160 1
19904 #SpeedyTuesday /Moonwatch (3주차) [14] file ClaudioKim 2020.05.26 125 1
19903 #speedytuesday [16] file 믓시엘 2020.05.26 121 2
19902 #Speedytuesday 이벤트 신청합니다. ㅎ [6] file 구세주군 2020.05.26 84 1
19901 #speedytuesday 타임포럼의 이벤트에 참여합니다~ [9] file 업그레이드우 2020.05.26 91 1
19900 @omega#speedytuesday 이벤트 참여합니다 ! [8] file 영자 2020.05.26 84 1
19899 오메가#SpeedyTuesday이벤트(사진하나 추가했습니다!) [8] file mdoc 2020.05.26 142 2
19898 @OMEGA #SpeedyTuesda 참여 합니다 [14] file soldier™ 2020.05.26 127 1
19897 충정로cs에 택배는 어떻게 보내시나요? [5] spdheang 2020.05.25 115 0
19896 쿼츠 배터리 교체 문의 [5] 시계김 2020.05.25 86 0
19895 햇살 좋은날 브로드애로우 [8] file 이안크라드 2020.05.23 229 1
19894 감사합니다. 이벤트 상품 잘 받았습니다. [6] file 김벤츠 2020.05.22 288 2
19893 [득템] 다시 만난 007 에디션...(씨마스터 007) [29] file Panera2 2020.05.22 608 6
19892 직장 동료의 기추 !! [8] file m.kris 2020.05.22 445 3
19891 저녁은 가니가니 도가니탕으로:) [4] file 리첸시아 2020.05.22 223 2